Change the Weather History Date:

Friday, April 5, 2013

  Actual Average Record
Temperature  
Mean Temperature 73 °F 62 °F  
Max Temperature 86 °F 76 °F 89 °F (1943)
Min Temperature 59 °F 48 °F 28 °F (1949)
Degree Days  
Heating Degree Days 0 5  
Month to date heating degree days 9 25  
Since 1 July heating degree days 2147 2398  
Cooling Degree Days 8 1  
Month to date cooling degree days 14 5  
Year to date cooling degree days 47 15  
Growing Degree Days 22 (Base 50)    
Moisture  
Dew Point 14 °F    
Average Humidity 14    
Maximum Humidity 22    
Minimum Humidity 5    
Precipitation  
Precipitation 0.00 in 0.00 in 0.47 in (1996)
Month to date precipitation 0.00 0.03  
Year to date precipitation 0.71 1.15  
Snow  
Snow 0.00 in - - ()
Month to date snowfall 0.0  
Since 1 July snowfall 3.1  
Snow Depth 0.00 in    
Sea Level Pressure  
Sea Level Pressure 29.81 in    
Wind  
Wind Speed 11 mph (SW)    
Max Wind Speed 26 mph    
Max Gust Speed 33 mph    
Visibility 10 miles    
Events      
T = Trace of Precipitation, MM = Missing Value Source: NWS Daily Summary

Daily Weather History Graph

Daily Weather History Graph

Search for Another Location

Airport or City:

Trip Planner

Search our weather history database for the weather conditions in past years. The results will help you decide how hot, cold, wet, or windy it might be!

Date:

Astronomy

Apr. 05, 2013 Rise Set
Actual Time 6:48 AM MDT 7:28 PM MDT
Civil Twilight 6:23 AM MDT 7:52 PM MDT
Nautical Twilight 5:54 AM MDT 8:21 PM MDT
Astronomical Twilight 5:25 AM MDT 8:51 PM MDT
Moon 3:40 AM MDT (4/5) 3:10 PM MDT (4/5)
Length of Visible Light 13h 28m
Length of Day
12h 39m
Waning Crescent, 23% of the Moon is Illuminated
Apr 5
Waning Crescent
Apr 10
New
Apr 18
First Quarter
Apr 25
Full
May 2
Last Quarter

Hourly Weather History & Observations

Time (MDT) Temp. Dew Point Humidity Pressure Visibility Wind Dir Wind Speed Gust Speed Precip Events Conditions
12:51 AM 64.0 °F 12.0 °F 13% 29.94 in 10.0 mi Calm Calm - N/A   Overcast
1:51 AM 63.0 °F 10.0 °F 13% 29.92 in 10.0 mi Calm Calm - N/A   Overcast
2:51 AM 61.0 °F 10.0 °F 13% 29.91 in 10.0 mi WSW 3.5 mph - N/A   Overcast
3:51 AM 60.1 °F 9.0 °F 13% 29.91 in 10.0 mi Calm Calm - N/A   Overcast
4:51 AM 61.0 °F 10.9 °F 14% 29.90 in 10.0 mi Calm Calm - N/A   Overcast
5:51 AM 60.1 °F 16.0 °F 18% 29.91 in 10.0 mi Calm Calm - N/A   Overcast
6:51 AM 60.1 °F 18.0 °F 20% 29.91 in 10.0 mi Calm Calm - N/A   Mostly Cloudy
7:51 AM 61.0 °F 21.9 °F 22% 29.94 in 10.0 mi Calm Calm - N/A   Mostly Cloudy
8:51 AM 64.9 °F 25.0 °F 22% 29.92 in 10.0 mi SSE 8.1 mph - N/A   Mostly Cloudy
9:51 AM 70.0 °F 24.1 °F 18% 29.91 in 10.0 mi SSE 15.0 mph 24.2 mph N/A   Mostly Cloudy
10:51 AM 73.9 °F 23.0 °F 15% 29.89 in 10.0 mi SSE 13.8 mph 23.0 mph N/A   Overcast
11:51 AM 78.1 °F 19.9 °F 11% 29.86 in 10.0 mi South 16.1 mph 25.3 mph N/A   Mostly Cloudy
12:51 PM 81.0 °F 16.0 °F 9% 29.82 in 10.0 mi South 16.1 mph - N/A   Mostly Cloudy
1:51 PM 82.9 °F 14.0 °F 8% 29.78 in 10.0 mi WSW 11.5 mph 24.2 mph N/A   Mostly Cloudy
2:51 PM 84.0 °F 10.0 °F 6% 29.75 in 10.0 mi SSW 15.0 mph - N/A   Mostly Cloudy
3:51 PM 82.9 °F 8.1 °F 6% 29.72 in 10.0 mi WSW 21.9 mph 27.6 mph N/A   Mostly Cloudy
4:51 PM 86.0 °F 6.1 °F 5% 29.69 in 10.0 mi West 20.7 mph 33.4 mph N/A   Mostly Cloudy
5:51 PM 84.9 °F 6.1 °F 5% 29.69 in 10.0 mi SW 15.0 mph 21.9 mph N/A   Scattered Clouds
6:51 PM 82.9 °F 8.1 °F 6% 29.68 in 10.0 mi SW 12.7 mph - N/A   Scattered Clouds
7:51 PM 81.0 °F 6.1 °F 6% 29.69 in 10.0 mi West 12.7 mph 27.6 mph N/A   Partly Cloudy
8:51 PM 79.0 °F 12.9 °F 8% 29.70 in 10.0 mi West 13.8 mph 23.0 mph N/A   Partly Cloudy
9:51 PM 73.9 °F 12.9 °F 10% 29.73 in 10.0 mi SW 9.2 mph - N/A   Clear
10:51 PM 75.9 °F 14.0 °F 10% 29.73 in 10.0 mi West 16.1 mph - N/A   Partly Cloudy
11:51 PM 75.9 °F 17.1 °F 11% 29.72 in 10.0 mi West 19.6 mph 25.3 mph N/A   Partly Cloudy